Simultaneous Nadir Overpasses (SNOs) Predictions

Prediction of SNOs between AQUA and GOES-15 Satellite Orbit:

Table of predicted SNOs for the next 14.0 days since TLE Epoch: 9/19/2025
Index Date Time (AQUA) AQUA Lat,Lon GOES-15 Lat,Lon Distance(km) Time Diff (sec)
1 09/20/2025 22:46:26 -0.51, 61.80 -0.42, 61.35 51.51 80
2 09/21/2025 11:05:37 -0.54, 57.17 0.38, 61.35 475.98 80
3 09/23/2025 10:44:58 0.59, 62.23 0.41, 61.35 99.83 80
4 09/23/2025 23:04:01 0.44, 57.63 -0.36, 61.34 421.88 80
5 09/25/2025 22:43:21 -0.67, 62.69 -0.39, 61.35 152.57 80
6 09/26/2025 11:02:33 -0.37, 58.06 0.34, 61.36 375.91 80
7 09/28/2025 10:41:53 0.77, 63.11 0.37, 61.37 198.78 80
8 09/28/2025 23:00:55 0.30, 58.53 -0.32, 61.36 322.27 80
9 09/30/2025 22:40:14 -0.82, 63.59 -0.36, 61.38 251.01 80
10 10/01/2025 10:59:26 -0.19, 58.95 0.31, 61.41 278.47 80
11 10/03/2025 10:38:44 0.90, 64.03 0.35, 61.43 295.54 80
